Milan, Italy

10:46 AM CET on November 20, 2017 (GMT +0100)
Malpensa

Weather History for LIMC - August, 2013

Change the Weather History Date:

Thursday, August 22, 2013

  Actual Average Record
Temperature  
Mean Temperature 68 °F -  
Max Temperature 82 °F 77 °F 95 °F (2011)
Min Temperature 55 °F 55 °F 50 °F (2004)
Cooling Degree Days 4    
Growing Degree Days 18 (Base 50)    
Moisture  
Dew Point 54 °F    
Average Humidity 61    
Maximum Humidity 94    
Minimum Humidity 35    
Precipitation  
Precipitation 0.00 in 0.10 in - ()
Sea Level Pressure  
Sea Level Pressure 30.06 in    
Wind  
Wind Speed 4 mph ()    
Max Wind Speed 10 mph    
Max Gust Speed -    
Visibility 6.2 miles    
Events      
Averages and records for this station are not official NWS values.
T = Trace of Precipitation, MM = Missing Value Source: Averaged Metar Reports

Daily Weather History Graph

Daily Weather History Graph

Search for Another Location

Airport or City:

Trip Planner

Search our weather history database for the weather conditions in past years. The results will help you decide how hot, cold, wet, or windy it might be!

Date:

Astronomy

Aug. 22, 2013 Rise Set
Actual Time 6:34 AM CEST 8:20 PM CEST
Civil Twilight 6:02 AM CEST 8:52 PM CEST
Nautical Twilight 5:23 AM CEST 9:30 PM CEST
Astronomical Twilight 4:41 AM CEST 10:12 PM CEST
Moon 8:46 PM CEST (8/22) 8:11 AM CEST (8/22)
Length of Visible Light 14h 50m
Length of Day
13h 46m
Full, 98% of the Moon is Illuminated
Aug 22
Full
Aug 28
Last Quarter
Sep 5
New
Sep 12
First Quarter
Sep 19
Full

Hourly Weather History & Observations

Time (CEST) Temp. Heat Index Dew Point Humidity Pressure Visibility Wind Dir Wind Speed Gust Speed Precip Events Conditions
12:20 AM 59.0 °F - 53.6 °F 82% 30.12 in - North 3.5 mph - N/A   Clear
12:50 AM 59.0 °F - 53.6 °F 82% 30.12 in - North 2.3 mph - N/A   Clear
1:20 AM 59.0 °F - 53.6 °F 82% 30.12 in - North 4.6 mph - N/A   Clear
1:50 AM 59.0 °F - 53.6 °F 82% 30.12 in - North 4.6 mph - N/A   Clear
2:20 AM 60.8 °F - 53.6 °F 77% 30.12 in - North 6.9 mph - N/A   Clear
2:50 AM 59.0 °F - 53.6 °F 82% 30.12 in - North 4.6 mph - N/A   Clear
3:20 AM 57.2 °F - 53.6 °F 88% 30.12 in - North 4.6 mph - N/A   Clear
3:50 AM 57.2 °F - 55.4 °F 94% 30.09 in - North 3.5 mph - N/A   Clear
4:20 AM 57.2 °F - 53.6 °F 88% 30.09 in - North 1.2 mph - N/A   Clear
4:50 AM 55.4 °F - 53.6 °F 94% 30.09 in - Variable 1.2 mph - N/A   Clear
5:20 AM 57.2 °F - 55.4 °F 94% 30.09 in - North 3.5 mph - N/A   Clear
5:50 AM 57.2 °F - 55.4 °F 94% 30.09 in - North 2.3 mph - N/A   Clear
6:20 AM 59.0 °F - 55.4 °F 88% 30.09 in - North 3.5 mph - N/A   Clear
6:50 AM 59.0 °F - 55.4 °F 88% 30.09 in - Variable 2.3 mph - N/A   Clear
7:20 AM 62.6 °F - 55.4 °F 77% 30.09 in - North 5.8 mph - N/A   Clear
7:50 AM 64.4 °F - 55.4 °F 73% 30.09 in - North 4.6 mph - N/A   Clear
8:20 AM 66.2 °F - 55.4 °F 68% 30.09 in - North 4.6 mph - N/A   Clear
8:50 AM 69.8 °F - 55.4 °F 60% 30.09 in - North 6.9 mph - N/A   Clear
9:20 AM 71.6 °F - 53.6 °F 53% 30.09 in - North 5.8 mph - N/A   Clear
9:50 AM 73.4 °F - 53.6 °F 50% 30.09 in - East 3.5 mph - N/A   Clear
10:20 AM 75.2 °F - 53.6 °F 47% 30.09 in - Variable 2.3 mph - N/A   Clear
10:50 AM 77.0 °F - 51.8 °F 41% 30.09 in - East 3.5 mph - N/A   Clear
11:20 AM 78.8 °F - 50.0 °F 36% 30.09 in - SE 3.5 mph - N/A   Clear
11:50 AM 78.8 °F - 51.8 °F 39% 30.06 in - Variable 3.5 mph - N/A   Clear
12:20 PM 78.8 °F - 51.8 °F 39% 30.06 in - NNW 3.5 mph - N/A   Clear
12:50 PM 80.6 °F - 51.8 °F 37% 30.06 in 6.2 mi Variable 3.5 mph - N/A   Partly Cloudy
1:20 PM 80.6 °F - 51.8 °F 37% 30.06 in 6.2 mi WSW 6.9 mph - N/A   Partly Cloudy
1:50 PM 80.6 °F 80.3 °F 53.6 °F 39% 30.04 in - WNW 8.1 mph - N/A   Clear
2:20 PM 82.4 °F 81.4 °F 53.6 °F 37% 30.04 in - SSE 5.8 mph - N/A   Clear
2:50 PM 80.6 °F 80.5 °F 55.4 °F 42% 30.04 in - SW 10.4 mph - N/A   Clear
3:20 PM 82.4 °F 81.7 °F 55.4 °F 39% 30.01 in - Variable 8.1 mph - N/A   Clear
3:50 PM 82.4 °F 81.7 °F 55.4 °F 39% 30.01 in - SW 9.2 mph - N/A   Clear
4:20 PM 82.4 °F 81.4 °F 53.6 °F 37% 30.01 in - Variable 8.1 mph - N/A   Clear
4:50 PM 82.4 °F - 51.8 °F 35% 30.01 in - SW 10.4 mph - N/A   Clear
5:20 PM 82.4 °F - 51.8 °F 35% 30.01 in - SSW 6.9 mph - N/A   Clear
5:50 PM 82.4 °F 81.4 °F 53.6 °F 37% 30.01 in - SW 8.1 mph - N/A   Clear
6:20 PM 80.6 °F 80.3 °F 53.6 °F 39% 30.01 in - WSW 9.2 mph - N/A   Clear
6:50 PM 80.6 °F 80.3 °F 53.6 °F 39% 29.98 in - WSW 6.9 mph - N/A   Clear
7:20 PM 78.8 °F - 55.4 °F 44% 29.98 in - SW 6.9 mph - N/A   Clear
7:50 PM 78.8 °F - 55.4 °F 44% 29.98 in - SW 5.8 mph - N/A   Clear
8:20 PM 73.4 °F - 57.2 °F 57% 30.01 in - SSW 3.5 mph - N/A   Clear
8:50 PM 71.6 °F - 55.4 °F 57% 30.01 in - Variable 1.2 mph - N/A   Clear
9:20 PM 68.0 °F - 57.2 °F 68% 30.01 in - Calm Calm - N/A   Clear
9:50 PM 68.0 °F - 57.2 °F 68% 30.01 in - Variable 2.3 mph - N/A   Clear
10:20 PM 69.8 °F - 57.2 °F 64% 30.04 in - Variable 2.3 mph - N/A   Clear
10:50 PM 66.2 °F - 57.2 °F 73% 30.04 in - Calm Calm - N/A   Clear
11:20 PM 64.4 °F - 57.2 °F 77% 30.04 in - Variable 1.2 mph - N/A   Clear
11:50 PM 64.4 °F - 59.0 °F 83% 30.04 in - North 3.5 mph - N/A   Clear